TimePST,TemperatureF,Dew PointF,Humidity,Sea Level PressureIn,VisibilityMPH,Wind Direction,Wind SpeedMPH,Gust SpeedMPH,PrecipitationIn,Events,Conditions,WindDirDegrees,DateUTC
12:53 AM,-13.0,-20.0,71,30.53,-9999.0,South,3.5,-,N/A,,Unknown,190,2013-01-03 08:53:00
1:53 AM,-9.9,-16.1,74,30.51,-9999.0,South,4.6,-,N/A,,Unknown,190,2013-01-03 09:53:00
2:53 AM,-11.9,-17.0,78,30.53,-9999.0,South,4.6,-,N/A,,Unknown,190,2013-01-03 10:53:00
3:53 AM,-9.0,-15.0,75,30.51,-9999.0,SW,5.8,-,N/A,,Unknown,230,2013-01-03 11:53:00
4:53 AM,-9.9,-13.0,86,30.56,-9999.0,WSW,6.9,-,N/A,,Unknown,240,2013-01-03 12:53:00
5:53 AM,-13.0,-18.0,78,30.63,-9999.0,SSW,4.6,-,N/A,,Unknown,200,2013-01-03 13:53:00
6:53 AM,-14.1,-18.0,82,30.64,-9999.0,SW,6.9,-,N/A,,Unknown,220,2013-01-03 14:53:00
7:53 AM,-9.0,-13.0,83,30.64,-9999.0,SW,8.1,-,N/A,,Unknown,220,2013-01-03 15:53:00
8:53 AM,-2.9,-6.0,87,30.65,-9999.0,WSW,4.6,-,N/A,,Unknown,240,2013-01-03 16:53:00
9:53 AM,7.0,1.0,77,30.62,-9999.0,Calm,Calm,-,N/A,,Unknown,0,2013-01-03 17:53:00
10:53 AM,12.0,1.9,64,30.59,-9999.0,Calm,Calm,-,N/A,,Unknown,0,2013-01-03 18:53:00
11:53 AM,14.0,3.9,64,30.56,-9999.0,East,3.5,-,N/A,,Unknown,90,2013-01-03 19:53:00
12:53 PM,18.0,5.0,57,30.53,-9999.0,Calm,Calm,-,N/A,,Unknown,0,2013-01-03 20:53:00
1:53 PM,21.9,5.0,48,30.48,-9999.0,Calm,Calm,-,N/A,,Unknown,0,2013-01-03 21:53:00
2:53 PM,19.0,6.1,57,30.52,-9999.0,ENE,3.5,-,N/A,,Unknown,70,2013-01-03 22:53:00
3:53 PM,19.0,5.0,54,30.52,-9999.0,Calm,Calm,-,N/A,,Unknown,0,2013-01-03 23:53:00
4:53 PM,7.0,-0.9,70,30.58,-9999.0,WNW,3.5,-,N/A,,Unknown,300,2013-01-04 00:53:00
5:53 PM,-2.0,-8.0,76,30.64,-9999.0,ENE,3.5,-,N/A,,Unknown,60,2013-01-04 01:53:00
6:53 PM,-5.1,-11.0,76,30.66,-9999.0,SSW,5.8,-,N/A,,Unknown,200,2013-01-04 02:53:00
7:53 PM,-6.0,-11.0,79,30.64,-9999.0,SSW,5.8,-,N/A,,Unknown,200,2013-01-04 03:53:00
8:53 PM,-4.0,-9.0,79,30.61,-9999.0,Calm,Calm,-,N/A,,Unknown,0,2013-01-04 04:53:00
9:53 PM,-7.1,-11.9,79,30.59,-9999.0,Calm,Calm,-,N/A,,Unknown,0,2013-01-04 05:53:00
10:53 PM,-6.0,-9.9,83,30.57,-9999.0,SW,5.8,-,N/A,,Unknown,220,2013-01-04 06:53:00
11:53 PM,-2.9,-7.1,82,30.53,-9999.0,SSW,8.1,-,N/A,,Unknown,210,2013-01-04 07:53:00